Precipitable_Water
0.97 0.93 0.89 0.88 0.81 0.94 1.04 1.08 1.08 1.04 1.04 1.07 0.82 0.83 0.77 0.71 0.59 0.63 0.57 0.63 0.60 0.48 0.48 0.52 0.50 0.45 0.45 0.44 0.35 0.39 0.39 0.40 0.34 0.29 0.30 0.29 0.28 0.35 0.34 0.38 0.35 0.30 0.23 0.21 0.23 0.20 0.19 0.48 0.48 0.38 0.50 0.56 0.64 0.74
0.96 0.91 0.91 0.89 0.84 0.78 0.87 0.93 0.88 0.89 0.97 1.02 0.80 0.79 0.82 0.81 0.62 0.66 0.54 0.63 0.69 0.55 0.50 0.61 0.52 0.56 0.51 0.51 0.45 0.45 0.42 0.42 0.40 0.35 0.39 0.37 0.26 0.27 0.21 0.14 0.33 0.24 0.29 0.25 0.29 0.27 0.42 0.47 0.44 0.53 0.56 0.58 0.66 0.70
0.92 0.92 0.93 0.89 0.84 0.80 0.77 0.80 0.84 0.88 0.98 1.00 0.80 0.85 0.84 0.79 0.63 0.63 0.60 0.63 0.53 0.50 0.53 0.50 0.46 0.52 0.57 0.54 0.58 0.41 0.46 0.48 0.44 0.50 0.44 0.40 0.29 0.35 0.25 0.25 0.27 0.31 0.37 0.29 0.31 0.41 0.43 0.47 0.50 0.51 0.53 0.53 0.63 0.75
0.94 0.92 0.92 0.90 0.86 0.85 0.82 0.81 0.85 0.91 1.01 1.04 0.89 0.89 0.86 0.74 0.63 0.59 0.57 0.67 0.62 0.48 0.36 0.45 0.65 0.60 0.62 0.59 0.56 0.55 0.53 0.57 0.55 0.50 0.41 0.37 0.35 0.45 0.35 0.36 0.32 0.36 0.38 0.33 0.33 0.41 0.42 0.46 0.47 0.48 0.47 0.53 0.59 0.65
0.96 0.96 0.94 0.93 0.92 0.90 0.86 0.83 0.87 0.94 1.02 1.02 0.86 0.79 0.75 0.67 0.58 0.56 0.55 0.65 0.71 0.54 0.40 0.43 0.64 0.67 0.61 0.61 0.53 0.53 0.52 0.50 0.45 0.40 0.38 0.37 0.46 0.46 0.49 0.46 0.38 0.43 0.36 0.33 0.32 0.43 0.43 0.43 0.53 0.54 0.51 0.49 0.48 0.52
0.96 0.94 0.93 0.92 0.93 0.94 0.89 0.85 0.89 0.97 1.01 0.94 0.87 0.80 0.69 0.63 0.55 0.57 0.42 0.65 0.71 0.77 0.60 0.49 0.72 0.65 0.64 0.63 0.57 0.58 0.58 0.55 0.52 0.46 0.45 0.52 0.58 0.50 0.41 0.38 0.47 0.48 0.51 0.52 0.46 0.53 0.56 0.59 0.60 0.61 0.56 0.53 0.55 0.55
0.97 0.95 0.95 0.95 0.95 0.94 0.92 0.88 0.93 0.99 1.00 0.90 0.83 0.83 0.67 0.65 0.56 0.50 0.54 0.69 0.72 0.74 0.59 0.52 0.56 0.63 0.65 0.62 0.61 0.58 0.63 0.59 0.58 0.56 0.53 0.53 0.54 0.58 0.50 0.40 0.51 0.54 0.57 0.57 0.59 0.58 0.51 0.55 0.52 0.59 0.62 0.61 0.62 0.60
0.98 0.98 0.99 0.99 1.01 1.01 0.99 0.93 0.96 1.00 1.03 0.87 0.85 0.78 0.68 0.68 0.69 0.54 0.75 0.88 0.76 0.59 0.63 0.50 0.51 0.54 0.65 0.54 0.54 0.66 0.57 0.60 0.60 0.59 0.64 0.62 0.67 0.64 0.49 0.55 0.61 0.63 0.63 0.61 0.60 0.61 0.56 0.55 0.53 0.49 0.53 0.54 0.55 0.57
0.97 1.00 1.02 1.04 1.05 1.05 1.03 1.01 0.99 1.05 1.05 0.86 0.85 0.80 0.73 0.71 0.73 0.79 0.80 0.78 0.85 0.63 0.49 0.52 0.43 0.40 0.63 0.56 0.59 0.62 0.63 0.49 0.66 0.55 0.60 0.66 0.61 0.53 0.58 0.61 0.64 0.66 0.61 0.60 0.63 0.60 0.60 0.52 0.47 0.47 0.48 0.48 0.44 0.47
0.95 0.98 1.04 1.06 1.07 1.08 1.09 1.04 1.04 1.09 1.02 0.93 0.84 0.80 0.74 0.87 1.14 0.97 0.77 0.58 0.54 0.58 0.57 0.46 0.63 0.51 0.58 0.58 0.56 0.57 0.61 0.53 0.48 0.61 0.76 0.63 0.59 0.71 0.74 0.74 0.74 0.71 0.70 0.70 0.59 0.49 0.50 0.44 0.45 0.48 0.52 0.56 0.54 0.54
0.89 0.91 0.98 1.03 1.07 1.08 1.08 1.07 1.07 1.09 1.07 0.94 0.82 0.87 1.10 1.15 0.90 0.66 0.48 0.41 0.44 0.36 0.44 0.44 0.48 0.49 0.69 0.51 0.54 0.67 0.56 0.62 0.52 0.59 0.62 0.57 0.56 0.65 0.73 0.69 0.72 0.70 0.68 0.67 0.59 0.56 0.55 0.52 0.50 0.52 0.56 0.56 0.58 0.61
0.88 0.84 0.79 0.89 0.97 1.02 1.03 1.06 1.04 1.01 1.03 0.98 1.00 1.13 1.07 0.84 0.68 0.57 0.47 0.46 0.42 0.33 0.54 0.57 0.55 0.46 0.65 0.75 0.64 0.67 0.57 0.66 0.48 0.70 0.60 0.49 0.59 0.68 0.69 0.63 0.61 0.64 0.64 0.60 0.61 0.63 0.62 0.58 0.58 0.58 0.57 0.58 0.61 0.65
0.84 0.84 0.79 0.79 0.85 0.90 0.94 0.97 0.93 0.95 0.95 1.00 0.91 0.79 0.73 0.65 0.50 0.39 0.29 0.37 0.39 0.53 0.65 0.70 0.59 0.59 0.66 0.73 0.69 0.65 0.58 0.56 0.70 0.57 0.51 0.54 0.62 0.67 0.66 0.63 0.65 0.68 0.67 0.66 0.65 0.64 0.63 0.59 0.59 0.59 0.58 0.61 0.61 0.65
0.91 0.90 0.85 0.79 0.75 0.73 0.76 0.78 0.80 0.83 0.76 0.66 0.59 0.46 0.51 0.45 0.40 0.38 0.45 0.52 0.63 0.69 0.73 0.74 0.75 0.75 0.79 0.71 0.71 0.57 0.63 0.65 0.52 0.46 0.45 0.55 0.60 0.61 0.62 0.65 0.66 0.65 0.63 0.58 0.56 0.58 0.57 0.58 0.56 0.58 0.58 0.62 0.60 0.56
0.96 1.01 0.94 0.88 0.84 0.81 0.78 0.75 0.73 0.70 0.60 0.57 0.60 0.44 0.44 0.51 0.60 0.62 0.65 0.63 0.70 0.78 0.74 0.69 0.71 0.73 0.68 0.63 0.65 0.63 0.55 0.49 0.49 0.47 0.53 0.58 0.60 0.60 0.62 0.64 0.67 0.66 0.62 0.53 0.52 0.53 0.52 0.48 0.46 0.50 0.54 0.55 0.54 0.51
0.96 0.95 0.94 0.99 0.99 0.94 0.93 0.86 0.74 0.65 0.58 0.51 0.53 0.45 0.48 0.51 0.55 0.56 0.55 0.56 0.74 0.76 0.78 0.71 0.62 0.56 0.54 0.56 0.54 0.54 0.49 0.44 0.49 0.56 0.60 0.61 0.58 0.59 0.64 0.64 0.63 0.57 0.50 0.46 0.45 0.43 0.42 0.42 0.43 0.45 0.46 0.46 0.46 0.46
0.98 0.89 1.03 0.98 0.93 0.96 0.96 0.87 0.76 0.62 0.51 0.51 0.46 0.46 0.42 0.43 0.49 0.55 0.57 0.61 0.77 0.66 0.56 0.62 0.52 0.50 0.62 0.52 0.49 0.58 0.51 0.55 0.59 0.61 0.63 0.59 0.52 0.55 0.55 0.48 0.45 0.44 0.42 0.39 0.41 0.45 0.45 0.47 0.48 0.46 0.41 0.43 0.47 0.49
0.88 1.00 1.01 0.96 0.92 0.91 0.91 0.88 0.79 0.71 0.58 0.57 0.49 0.45 0.50 0.52 0.55 0.60 0.68 0.74 0.64 0.60 0.62 0.57 0.70 0.54 0.43 0.41 0.51 0.62 0.65 0.69 0.68 0.65 0.64 0.60 0.58 0.56 0.51 0.43 0.42 0.38 0.40 0.43 0.46 0.48 0.48 0.46 0.42 0.42 0.46 0.49 0.50 0.49
0.95 0.95 0.92 0.90 0.88 0.79 0.73 0.78 0.76 0.56 0.60 0.67 0.67 0.68 0.70 0.63 0.63 0.69 0.71 0.72 0.71 0.72 0.69 0.60 0.51 0.50 0.56 0.68 0.66 0.68 0.69 0.69 0.64 0.65 0.63 0.57 0.56 0.50 0.45 0.39 0.40 0.43 0.45 0.48 0.50 0.47 0.45 0.45 0.46 0.49 0.50 0.50 0.49 0.51
0.91 0.91 0.90 0.88 0.86 0.71 0.66 0.69 0.89 0.70 0.61 0.68 0.70 0.66 0.67 0.64 0.66 0.69 0.70 0.68 0.66 0.64 0.56 0.53 0.58 0.68 0.72 0.75 0.78 0.74 0.69 0.69 0.66 0.58 0.51 0.52 0.51 0.49 0.44 0.40 0.42 0.47 0.49 0.50 0.46 0.44 0.44 0.45 0.48 0.49 0.49 0.49 0.49 0.51
0.87 0.91 0.92 0.87 0.81 0.77 0.72 0.70 0.72 0.75 0.72 0.67 0.71 0.72 0.66 0.71 0.65 0.62 0.60 0.68 0.61 0.60 0.64 0.74 0.75 0.79 0.83 0.86 0.86 0.76 0.68 0.68 0.64 0.56 0.51 0.47 0.49 0.44 0.42 0.44 0.46 0.47 0.44 0.42 0.39 0.41 0.43 0.42 0.46 0.50 0.51 0.49 0.50 0.52
0.89 0.99 0.92 0.90 0.81 0.83 0.74 0.77 0.67 0.74 0.66 0.63 0.63 0.62 0.54 0.53 0.55 0.58 0.70 0.63 0.65 0.75 0.82 0.80 0.80 0.79 0.80 0.78 0.73 0.70 0.70 0.71 0.69 0.59 0.57 0.53 0.43 0.40 0.41 0.44 0.44 0.43 0.43 0.42 0.41 0.42 0.45 0.48 0.51 0.52 0.53 0.51 0.50 0.51
0.98 0.92 0.82 0.79 0.69 0.69 0.63 0.79 0.65 0.66 0.53 0.54 0.65 0.55 0.56 0.58 0.66 0.77 0.63 0.73 0.79 0.91 0.94 0.92 0.89 0.87 0.78 0.73 0.71 0.70 0.71 0.68 0.63 0.56 0.52 0.51 0.46 0.45 0.45 0.47 0.46 0.42 0.42 0.43 0.47 0.47 0.47 0.49 0.50 0.49 0.50 0.49 0.48 0.47
0.94 0.81 0.72 0.63 0.64 0.54 0.62 0.58 0.69 0.63 0.61 0.50 0.46 0.51 0.66 0.76 0.87 0.78 0.70 0.79 0.87 0.95 0.89 0.85 0.82 0.76 0.73 0.68 0.63 0.62 0.60 0.57 0.53 0.51 0.49 0.47 0.44 0.45 0.47 0.46 0.46 0.46 0.46 0.45 0.47 0.49 0.51 0.49 0.48 0.47 0.48 0.48 0.47 0.47
0.63 0.64 0.65 0.54 0.67 0.60 0.52 0.54 0.51 0.46 0.43 0.60 0.69 0.71 0.74 0.83 0.70 0.69 0.68 0.75 0.81 0.80 0.76 0.75 0.74 0.72 0.65 0.65 0.66 0.65 0.61 0.47 0.35 0.33 0.39 0.38 0.38 0.40 0.43 0.44 0.45 0.46 0.49 0.46 0.46 0.48 0.48 0.48 0.48 0.47 0.46 0.45 0.44 0.46
0.53 0.64 0.55 0.52 0.55 0.51 0.54 0.51 0.52 0.58 0.67 0.67 0.71 0.81 0.83 0.71 0.59 0.49 0.52 0.54 0.60 0.64 0.66 0.68 0.69 0.67 0.67 0.71 0.67 0.56 0.44 0.40 0.37 0.35 0.38 0.39 0.37 0.38 0.39 0.40 0.40 0.43 0.50 0.51 0.50 0.48 0.48 0.48 0.45 0.45 0.44 0.43 0.44 0.44
0.53 0.56 0.63 0.65 0.63 0.63 0.57 0.62 0.69 0.65 0.61 0.62 0.70 0.73 0.70 0.58 0.57 0.68 0.74 0.65 0.57 0.67 0.75 0.75 0.73 0.66 0.61 0.62 0.55 0.50 0.49 0.44 0.40 0.40 0.43 0.43 0.41 0.42 0.42 0.41 0.41 0.44 0.49 0.51 0.52 0.51 0.46 0.46 0.45 0.44 0.42 0.43 0.45 0.46
0.60 0.62 0.51 0.57 0.59 0.59 0.56 0.63 0.58 0.54 0.61 0.73 0.69 0.57 0.59 0.60 0.58 0.77 0.81 0.78 0.68 0.70 0.75 0.76 0.75 0.69 0.67 0.68 0.70 0.64 0.54 0.50 0.47 0.45 0.44 0.43 0.43 0.44 0.43 0.46 0.48 0.49 0.49 0.51 0.51 0.49 0.47 0.45 0.46 0.47 0.43 0.42 0.44 0.48
0.59 0.62 0.62 0.54 0.57 0.55 0.58 0.60 0.59 0.63 0.69 0.68 0.63 0.67 0.71 0.78 0.83 0.84 0.86 0.83 0.77 0.71 0.62 0.64 0.70 0.74 0.77 0.77 0.72 0.66 0.52 0.48 0.41 0.35 0.33 0.33 0.35 0.37 0.43 0.44 0.45 0.46 0.47 0.47 0.49 0.48 0.47 0.47 0.48 0.48 0.47 0.48 0.48 0.50
0.54 0.59 0.52 0.47 0.45 0.43 0.51 0.60 0.59 0.64 0.67 0.67 0.69 0.74 0.80 0.83 0.89 0.95 0.92 0.88 0.76 0.68 0.68 0.70 0.69 0.70 0.68 0.63 0.59 0.53 0.50 0.46 0.39 0.36 0.33 0.33 0.34 0.40 0.42 0.43 0.44 0.43 0.44 0.44 0.43 0.43 0.44 0.45 0.47 0.50 0.51 0.52 0.53 0.53
0.56 0.52 0.45 0.40 0.38 0.46 0.54 0.60 0.62 0.66 0.69 0.69 0.74 0.73 0.74 0.81 0.90 1.01 1.00 0.98 0.90 0.84 0.74 0.67 0.62 0.62 0.58 0.56 0.51 0.44 0.40 0.43 0.41 0.40 0.39 0.39 0.40 0.42 0.42 0.43 0.46 0.42 0.40 0.41 0.43 0.43 0.43 0.43 0.45 0.46 0.48 0.50 0.52 0.53
0.46 0.43 0.41 0.37 0.43 0.56 0.63 0.58 0.56 0.56 0.61 0.64 0.68 0.77 0.80 0.84 0.79 0.89 1.02 0.96 0.89 0.84 0.77 0.67 0.62 0.60 0.61 0.60 0.60 0.59 0.59 0.57 0.58 0.57 0.53 0.48 0.45 0.45 0.43 0.42 0.44 0.42 0.42 0.43 0.43 0.43 0.44 0.45 0.46 0.48 0.49 0.50 0.51 0.53
0.48 0.48 0.50 0.50 0.49 0.47 0.52 0.53 0.52 0.56 0.63 0.65 0.71 0.80 0.82 0.82 0.81 0.96 1.11 1.06 0.95 0.89 0.83 0.81 0.79 0.74 0.70 0.64 0.62 0.59 0.59 0.60 0.58 0.62 0.59 0.55 0.50 0.51 0.53 0.46 0.43 0.43 0.42 0.44 0.44 0.44 0.43 0.45 0.45 0.47 0.48 0.49 0.49 0.50
Wind_Speed
28 27 26 24 22 21 19 17 16 15 13 11 9 8 7 7 8 9 9 8 9 7 6 3 1 2 1 1 2 1 3 1 2 3 3 3 3 5 3 5 5 5 5 7 8 9 12 11 14 16 19 19 20 24
28 27 25 23 22 20 19 18 16 15 13 12 10 10 8 8 10 10 10 9 10 10 8 5 3 3 2 3 2 1 1 2 2 2 1 2 2 2 3 3 4 4 6 6 7 9 10 10 12 13 15 16 20 22
28 26 24 23 21 19 18 16 15 14 12 11 10 9 8 8 10 10 10 8 10 10 9 7 5 4 3 3 3 2 1 1 1 1 3 3 2 3 4 6 4 5 5 5 5 8 10 11 11 12 13 14 15 19
28 26 24 22 20 18 17 15 13 12 10 9 8 8 8 10 10 10 11 9 9 10 10 8 8 7 5 4 3 3 3 2 2 3 3 3 3 4 5 6 6 7 5 6 8 9 9 10 11 12 13 15 16 18
27 24 22 20 19 17 16 14 13 11 10 8 7 5 8 11 9 10 12 11 10 10 9 10 8 7 6 5 4 2 2 3 4 5 4 6 6 6 7 8 9 10 10 9 11 12 11 12 13 13 14 15 18 20
25 23 21 19 18 17 15 14 13 11 9 9 8 7 9 10 9 10 11 13 11 12 8 8 9 9 8 6 5 4 4 5 5 6 7 7 8 7 7 9 12 13 13 13 14 13 13 14 15 16 18 19 21 22
23 21 20 18 17 16 15 13 11 10 9 9 8 9 10 10 11 11 10 12 12 12 10 9 7 8 10 7 6 6 6 6 6 6 8 8 8 9 10 13 13 13 13 13 14 13 15 15 17 18 18 20 22 25
20 19 18 17 15 14 13 11 11 10 9 9 9 9 11 11 10 11 10 11 12 12 12 10 9 8 10 7 7 7 6 7 8 8 9 9 10 11 12 13 12 14 15 15 16 17 17 18 18 18 19 21 22 23
18 16 15 14 12 11 10 10 10 10 9 9 8 9 10 10 10 11 11 12 12 13 13 12 11 10 10 9 8 8 8 9 11 10 11 10 11 12 14 15 15 15 15 16 15 16 18 19 20 20 20 21 23 25
14 13 12 10 9 8 8 8 9 9 9 9 9 9 8 9 9 10 10 10 11 13 14 14 13 11 10 10 9 8 9 9 9 12 11 12 15 18 18 18 17 15 14 13 14 16 17 18 18 18 19 20 20 20
11 10 9 7 6 5 5 6 7 7 8 8 9 9 8 8 8 8 8 9 10 10 12 14 16 13 11 10 10 10 9 9 9 11 10 12 13 14 15 15 13 14 14 15 14 14 14 14 15 17 19 20 20 20
10 8 7 5 4 4 5 5 5 6 7 8 8 9 8 8 8 9 10 9 10 10 9 9 11 14 11 11 10 10 10 9 11 11 12 11 13 14 13 11 11 11 11 11 12 14 15 16 18 19 20 20 20 20
10 8 6 3 2 2 4 5 4 4 5 7 7 7 6 8 7 9 9 10 9 9 8 8 7 7 9 9 9 9 10 11 12 12 11 13 12 11 10 10 9 9 9 11 13 15 16 17 18 19 20 19 19 19
10 9 7 6 4 3 3 3 4 5 5 5 6 5 7 7 7 8 8 8 8 7 7 7 8 7 8 8 9 9 11 11 11 11 13 12 11 10 9 10 9 9 10 12 13 15 16 18 19 19 19 19 20 21
10 9 9 9 8 6 6 6 5 5 6 5 5 6 7 7 7 7 8 8 9 8 7 5 7 8 6 6 8 8 8 9 10 11 11 10 9 9 9 10 9 10 11 12 13 14 16 17 17 17 18 19 20 21
10 10 9 9 9 8 8 8 8 7 7 7 7 6 7 7 7 6 7 7 8 10 8 6 6 6 7 6 6 8 9 11 12 11 10 9 9 9 9 8 9 10 12 13 14 15 15 16 15 16 18 20 21 22
9 9 8 8 9 9 8 8 9 9 8 8 8 10 10 10 10 8 8 8 9 8 7 6 6 7 5 6 8 9 10 12 11 9 8 8 8 7 7 8 9 10 11 11 11 12 13 15 16 17 19 19 19 21
8 8 8 8 9 9 11 11 10 10 11 11 10 9 10 11 11 10 8 9 9 9 8 8 7 9 9 9 11 12 12 11 10 8 8 8 7 7 7 8 9 9 9 10 11 13 14 15 15 14 14 15 17 20
8 8 8 8 8 9 9 10 11 11 12 11 11 11 11 11 11 10 10 12 10 10 8 9 8 9 11 12 12 12 11 9 7 7 8 6 6 7 7 7 7 8 9 10 11 13 12 11 11 12 13 14 15 17
10 10 10 9 8 8 8 9 9 9 8 8 8 9 10 10 10 10 10 10 10 10 10 11 12 13 13 13 11 9 8 7 5 6 6 7 7 7 7 7 8 8 8 9 11 10 10 11 11 11 12 13 13 13
7 6 7 8 8 8 7 7 8 8 8 8 8 8 9 9 8 9 10 11 10 10 11 12 13 12 10 8 8 7 6 6 6 6 7 7 6 6 6 5 5 6 8 10 9 9 9 11 12 13 14 13 12 9
6 6 5 6 6 7 8 9 9 8 7 8 8 9 9 9 9 9 9 10 11 11 10 9 8 7 6 6 5 5 6 5 5 5 5 5 5 6 5 4 4 6 8 9 8 8 11 12 12 13 13 11 10 9
7 7 6 6 5 6 6 6 7 8 7 6 6 6 5 6 7 8 10 11 11 11 10 8 7 6 6 5 3 3 4 5 5 6 6 6 5 5 4 4 4 5 7 8 8 9 10 11 11 12 11 9 8 9
7 6 6 6 6 5 5 6 6 6 7 7 6 4 4 4 5 6 8 10 13 11 9 7 7 6 5 4 4 4 4 5 5 6 5 4 4 5 5 4 3 4 6 7 7 8 9 10 11 11 10 10 8 8
7 7 7 7 5 5 5 5 7 8 8 7 4 2 2 1 2 3 3 3 6 7 7 8 7 7 6 5 5 5 5 4 4 4 4 3 3 3 3 3 3 3 3 5 7 8 9 9 10 11 9 10 8 7
8 8 9 7 7 7 7 6 8 8 6 6 3 2 1 2 2 3 3 3 5 6 7 8 8 8 7 7 6 5 5 5 4 4 4 4 4 4 4 4 3 4 3 4 5 7 8 9 9 9 10 8 9 8
7 8 10 9 8 8 7 7 8 6 6 5 4 2 2 2 3 4 4 4 4 6 7 7 7 8 7 7 6 5 5 5 5 6 6 6 6 6 6 6 6 6 5 4 4 6 7 7 7 8 8 9 8 8
9 7 10 8 10 10 9 8 7 6 5 4 2 3 4 4 5 5 5 6 5 6 7 8 8 7 7 8 7 7 6 6 7 6 5 6 7 8 9 9 9 7 6 5 4 4 5 6 6 6 7 8 8 7
9 8 8 9 11 11 11 10 8 7 5 4 5 4 4 5 6 6 6 5 5 5 6 7 8 8 8 9 9 9 8 7 6 6 7 7 7 7 6 6 7 8 7 6 5 4 4 3 3 5 6 7 7 8
9 9 9 10 10 11 11 11 8 7 7 7 8 7 7 7 7 7 7 7 8 9 9 9 9 9 9 9 9 9 10 10 9 8 7 8 7 6 5 4 4 5 6 6 5 4 3 2 2 3 4 6 6 7
6 8 9 10 9 10 9 8 8 7 6 6 7 7 7 8 8 10 12 16 15 13 12 11 10 10 10 10 10 9 9 9 8 7 6 5 5 6 7 6 6 6 6 6 6 5 4 3 3 3 4 4 5 5
8 10 8 7 7 6 6 6 7 7 7 7 7 8 9 11 12 14 16 12 13 16 15 15 13 11 10 10 10 9 8 6 7 7 7 7 7 8 8 9 8 7 8 8 8 8 8 7 6 6 6 6 6 6
7 7 8 5 4 5 4 4 4 5 5 6 7 8 10 11 12 14 12 9 7 9 13 12 11 12 13 14 13 12 10 10 9 8 9 9 9 9 8 9 10 10 9 10 10 11 11 10 10 10 10 9 9 8
Wind_Direction
314 314 312 311 311 310 310 309 307 307 306 302 299 296 281 251 222 208 209 208 205 203 210 200 208 184 142 111 111 97 59 66 95 98 138 191 177 210 209 226 220 219 217 231 233 235 245 249 247 242 241 248 240 229
312 311 311 308 307 307 304 304 303 302 295 288 289 287 263 246 216 210 211 213 210 202 209 215 227 226 198 189 150 94 113 118 141 113 146 150 181 201 203 235 236 245 225 235 229 238 243 250 241 244 245 248 240 230
309 308 307 306 303 303 301 300 300 299 291 284 281 275 258 221 210 211 212 217 212 210 220 218 230 212 208 217 213 190 256 177 186 191 187 213 229 208 223 245 243 252 242 250 256 257 252 250 250 249 247 250 243 232
307 305 303 301 298 297 298 295 297 294 287 279 282 266 236 207 209 215 211 215 210 209 213 224 231 227 234 225 224 232 214 242 251 267 249 233 235 235 247 255 245 247 245 250 269 268 272 262 259 254 255 251 245 238
305 303 300 297 294 291 291 288 289 284 276 266 270 253 216 205 216 219 216 217 214 207 218 222 231 226 223 218 217 226 251 262 268 270 265 254 254 260 274 269 264 255 254 256 266 265 262 267 262 261 257 253 248 243
303 300 297 295 290 287 283 281 278 270 264 256 255 242 219 215 223 214 219 219 218 216 219 218 227 231 223 222 217 250 272 278 274 266 258 268 266 267 276 271 271 265 262 258 266 264 265 271 270 270 263 260 257 251
301 299 295 294 289 284 277 271 263 255 255 249 250 234 225 223 223 218 223 220 219 218 218 228 238 234 219 222 245 265 277 283 282 273 267 265 269 273 277 277 274 262 265 265 265 267 274 274 273 269 268 268 264 259
300 298 295 293 288 282 270 261 251 245 246 248 243 233 223 225 226 224 228 224 217 215 218 222 232 225 218 232 249 267 276 282 291 275 276 271 277 279 281 277 278 272 270 271 266 267 273 278 274 271 272 273 270 264
302 299 295 292 287 277 263 250 244 240 240 242 237 231 222 222 228 229 224 221 224 221 221 224 222 233 229 238 253 270 277 283 282 280 275 274 276 274 277 281 277 276 273 271 268 271 276 279 274 275 278 279 276 270
309 305 297 292 282 271 255 240 238 233 236 232 223 221 224 225 232 224 231 231 229 230 229 229 227 236 232 243 257 268 283 282 284 287 279 271 274 283 283 280 281 275 268 270 274 279 281 283 275 271 279 282 279 274
310 316 309 292 276 260 240 232 231 227 217 220 225 227 234 225 220 218 227 224 226 231 230 234 228 232 243 245 251 267 276 281 286 292 292 289 281 284 293 290 275 272 272 272 274 282 285 282 280 277 283 284 281 275
292 308 322 311 275 247 231 217 221 221 224 217 227 228 224 220 225 231 231 230 222 225 224 224 230 226 238 244 256 272 272 276 281 291 291 291 293 291 295 289 284 279 271 272 276 281 286 287 287 286 286 285 281 278
273 279 287 300 283 227 198 196 211 218 208 204 208 213 218 222 228 220 220 216 219 213 215 214 222 220 233 250 263 266 265 272 289 287 287 294 298 293 296 293 292 285 282 287 290 291 288 291 293 291 288 286 282 278
260 257 258 249 236 217 198 201 192 185 181 190 196 221 207 212 216 203 193 191 201 205 203 208 215 225 259 258 266 257 271 285 287 284 288 295 290 291 293 292 290 292 297 298 297 297 297 297 298 295 291 289 284 281
251 251 248 241 232 234 229 215 202 195 191 200 204 218 219 212 204 205 210 218 223 212 208 227 236 249 256 252 277 266 269 278 284 292 294 294 295 294 294 292 288 294 302 304 301 301 303 303 302 300 300 297 294 290
252 249 238 234 233 236 225 214 215 216 222 225 228 235 225 213 223 214 223 235 216 209 217 245 237 240 251 249 265 262 271 281 294 288 291 299 299 297 294 286 291 298 303 306 307 307 308 310 309 306 305 305 301 296
244 239 234 233 232 230 224 226 224 228 235 236 238 235 236 235 233 237 238 231 206 204 221 232 230 230 247 265 275 270 280 294 288 285 290 296 298 297 294 297 300 305 309 312 314 315 316 315 314 314 315 314 313 310
236 233 235 237 240 238 235 231 234 237 240 240 238 242 238 237 238 238 232 214 211 221 226 242 229 243 258 269 282 286 284 291 283 280 285 296 296 297 300 302 305 310 316 319 322 323 322 321 323 325 327 326 326 326
234 238 247 243 238 237 235 236 234 243 239 245 242 245 244 236 230 229 224 215 225 227 233 239 250 260 271 275 284 284 280 276 271 275 285 285 289 298 305 311 309 314 317 321 325 326 328 334 335 333 333 336 339 343
245 250 245 237 231 230 237 235 228 233 233 232 241 236 225 224 223 224 220 221 227 231 242 250 262 274 274 278 279 274 268 247 259 284 288 285 289 298 301 308 313 322 327 332 333 336 338 338 339 340 340 339 342 349
237 231 217 217 224 226 232 232 227 229 239 237 235 227 221 218 219 219 220 222 230 241 259 267 274 273 265 269 266 253 241 236 257 280 283 285 289 295 302 315 324 332 336 336 336 335 339 337 337 337 336 336 340 340
216 208 211 215 225 228 236 230 228 236 241 237 241 225 224 220 222 227 227 231 248 252 253 262 261 247 249 251 246 234 236 246 264 287 294 284 292 299 292 296 322 332 339 342 343 341 341 339 339 341 342 342 348 355
213 213 220 214 223 222 233 219 226 224 217 209 201 198 202 219 230 229 241 243 247 246 248 245 246 235 220 222 235 253 251 256 275 288 288 283 275 283 277 284 310 335 345 348 351 352 351 352 352 353 359 6 3 0
206 214 211 211 213 232 223 218 207 200 189 187 187 194 235 251 250 251 252 261 242 225 221 217 208 203 213 232 247 260 276 280 294 301 282 265 272 274 265 268 292 325 349 0 1 358 357 360 6 8 7 7 10 9
214 220 202 222 219 213 204 195 189 184 177 176 179 184 245 190 214 223 217 197 185 199 206 206 211 214 231 249 252 264 265 272 289 298 279 274 271 271 250 264 269 294 341 0 3 6 7 7 7 10 8 9 6 4
211 212 199 206 203 190 184 174 171 178 176 187 196 190 165 181 213 221 221 222 212 211 217 218 223 232 243 244 241 246 259 253 260 283 272 266 260 245 239 245 254 275 287 326 353 360 2 7 9 12 15 17 23 30
223 219 208 206 199 195 195 187 186 190 198 195 199 188 196 245 249 251 252 244 248 235 226 226 230 230 228 215 223 238 258 247 255 268 275 265 255 255 249 248 253 262 262 282 315 344 357 7 12 15 18 22 22 21
212 202 202 204 203 198 196 195 199 196 193 194 194 266 259 253 281 280 261 259 260 232 228 228 224 220 221 225 239 242 259 264 275 273 271 279 274 267 261 258 255 247 257 266 287 315 346 360 12 18 19 19 16 19
206 208 205 207 201 198 196 195 199 203 210 230 218 258 263 269 289 281 278 257 244 237 228 223 230 232 238 247 242 236 244 260 269 266 266 274 280 279 270 258 251 247 248 252 257 273 303 327 357 13 18 21 22 20
212 204 198 196 193 196 201 201 212 240 250 251 252 263 272 275 288 288 275 269 252 245 239 237 240 244 247 237 237 245 254 264 262 260 266 268 265 256 241 243 251 251 237 235 244 254 267 287 329 348 359 5 8 11
179 173 187 197 202 202 211 222 239 248 250 260 267 257 265 276 279 305 298 281 261 245 238 242 243 243 237 232 239 248 258 253 247 252 263 262 251 244 244 250 261 258 239 229 234 239 249 261 271 290 319 334 340 343
175 183 180 181 189 205 231 238 238 240 251 257 262 271 283 287 288 296 311 306 246 240 241 234 232 238 231 233 232 233 245 246 240 250 251 257 256 258 252 251 253 248 245 242 242 244 250 256 262 275 288 301 311 314
164 172 185 202 215 212 217 249 244 258 268 270 279 285 293 296 295 298 291 304 271 250 228 233 248 252 249 243 243 245 244 248 255 264 251 254 260 266 263 249 246 250 248 248 252 254 254 256 263 267 273 281 286 291